Location: EverStaR Observatory
(38.9036°N, 94.8303°W)
Time: 09:09:36
(UTC-05:00)

ISS - Visible Passes

Search period start: 21 March 2019 00:00
Search period end: 31 March 2019 00:00
Orbit: 406 x 411 km, 51.6° (Epoch: 21 March)

Date Brightness Start Highest point End Pass type
(mag) Time Alt. Az. Time Alt. Az. Time Alt. Az.
21 Mar -3.7 20:34:58 10° SW 20:38:12 56° SE 20:40:02 23° ENE visible
21 Mar -0.4 22:12:25 10° WNW 22:12:50 12° WNW 22:12:50 12° WNW visible
22 Mar -2.1 21:20:45 10° W 21:23:44 31° NNW 21:24:36 26° N visible
23 Mar -3.1 20:29:20 10° WSW 20:32:33 53° NW 20:35:48 10° NE visible
23 Mar -0.5 22:08:02 10° NW 22:08:55 12° NNW 22:08:55 12° NNW visible
24 Mar -1.1 21:16:02 10° WNW 21:18:21 17° NNW 21:20:17 12° NNE visible
25 Mar -1.7 20:24:15 10° W 20:27:02 25° NNW 20:29:50 10° NNE visible
26 Mar -0.9 21:11:45 10° NW 21:13:03 12° NNW 21:14:21 10° N visible
27 Mar -1.0 20:19:36 10° WNW 20:21:38 15° NNW 20:23:39 10° NNE visible
29 Mar -0.9 20:15:26 10° NNW 20:16:18 11° N 20:17:10 10° N visible
29 Mar -0.7 21:53:29 10° N 21:53:39 10° N 21:53:39 10° N visible
